QPF
0.04 0.06 0.06 0.07 0.11 0.10 0.06 0.03 0.03 0.03 0.02 0.02 0.02 0.03 0.04 0.04 0.04 0.03 0.03 0.02 0.02 0.02 0.03 0.07 0.08 0.07 0.06 0.04 0.05 0.04 0.04 0.03 0.04 0.03 0.02 0.01 0.02 0.01 0.01 0.02 0.02 0.03 0.03 0.03 0.03 0.03 0.04 0.04 0.04
0.01 0.03 0.05 0.08 0.11 0.08 0.06 0.04 0.03 0.02 0.03 0.02 0.02 0.02 0.03 0.02 0.01 0.01 0.02 0.01 0.02 0.02 0.04 0.05 0.06 0.06 0.04 0.03 0.04 0.03 0.03 0.03 0.03 0.03 0.02 0.01 0.01 0.01 0.01 0.01 0.01 0.01 0.02 0.03 0.04 0.04 0.05 0.04 0.03
0.00 0.01 0.03 0.04 0.03 0.03 0.04 0.04 0.05 0.03 0.03 0.02 0.03 0.03 0.02 0.02 0.02 0.02 0.02 0.01 0.02 0.02 0.03 0.05 0.07 0.04 0.04 0.02 0.03 0.03 0.03 0.03 0.03 0.02 0.02 0.01 0.01 0.01 0.02 0.01 0.01 0.01 0.01 0.02 0.03 0.05 0.04 0.04 0.04
0.01 0.01 0.01 0.02 0.01 0.01 0.03 0.04 0.05 0.06 0.04 0.02 0.03 0.03 0.03 0.04 0.04 0.02 0.01 0.01 0.01 0.02 0.02 0.03 0.06 0.05 0.03 0.02 0.02 0.02 0.03 0.04 0.03 0.02 0.01 0.01 0.01 0.03 0.02 0.02 0.01 0.02 0.02 0.01 0.02 0.03 0.04 0.06 0.05
0.01 0.01 0.01 0.01 0.01 0.01 0.02 0.03 0.04 0.05 0.04 0.02 0.03 0.03 0.02 0.05 0.03 0.01 0.01 0.01 0.02 0.01 0.01 0.02 0.04 0.04 0.02 0.02 0.02 0.01 0.02 0.03 0.03 0.02 0.01 0.01 0.02 0.02 0.02 0.03 0.02 0.02 0.03 0.02 0.02 0.02 0.04 0.06 0.08
0.02 0.01 0.01 0.01 0.01 0.01 0.02 0.01 0.02 0.02 0.02 0.02 0.02 0.01 0.03 0.05 0.03 0.01 0.01 0.02 0.02 0.00 0.01 0.02 0.04 0.04 0.03 0.04 0.03 0.02 0.02 0.02 0.02 0.02 0.01 0.02 0.02 0.02 0.02 0.02 0.02 0.02 0.02 0.02 0.02 0.02 0.04 0.05 0.05
0.01 0.01 0.01 0.01 0.01 0.02 0.02 0.02 0.03 0.03 0.03 0.02 0.01 0.01 0.03 0.05 0.03 0.02 0.01 0.01 0.02 0.01 0.01 0.01 0.02 0.02 0.02 0.03 0.04 0.04 0.03 0.02 0.02 0.02 0.02 0.02 0.03 0.03 0.02 0.03 0.03 0.02 0.02 0.03 0.04 0.04 0.04 0.04 0.03
0.01 0.01 0.01 0.01 0.01 0.02 0.01 0.02 0.02 0.02 0.03 0.02 0.01 0.01 0.02 0.03 0.03 0.03 0.02 0.01 0.02 0.02 0.02 0.02 0.02 0.01 0.01 0.02 0.04 0.04 0.03 0.02 0.01 0.01 0.01 0.02 0.02 0.03 0.02 0.03 0.04 0.04 0.03 0.04 0.04 0.05 0.04 0.04 0.04
0.01 0.01 0.01 0.01 0.01 0.01 0.01 0.02 0.02 0.01 0.02 0.03 0.02 0.01 0.01 0.02 0.02 0.02 0.01 0.01 0.02 0.02 0.02 0.02 0.02 0.02 0.01 0.02 0.03 0.03 0.02 0.01 0.00 0.00 0.01 0.01 0.02 0.03 0.03 0.05 0.05 0.06 0.05 0.05 0.06 0.06 0.04 0.03 0.03
0.00 0.01 0.01 0.00 0.01 0.01 0.00 0.01 0.01 0.02 0.04 0.05 0.02 0.01 0.01 0.02 0.01 0.01 0.02 0.01 0.01 0.01 0.01 0.01 0.02 0.02 0.02 0.02 0.02 0.02 0.01 0.01 0.00 0.00 0.00 0.01 0.01 0.02 0.02 0.04 0.07 0.07 0.05 0.05 0.05 0.03 0.02 0.02 0.01
0.00 0.01 0.01 0.00 0.00 0.00 0.01 0.01 0.01 0.01 0.03 0.05 0.02 0.01 0.01 0.01 0.01 0.02 0.04 0.04 0.03 0.02 0.02 0.02 0.04 0.03 0.02 0.01 0.01 0.01 0.01 0.01 0.00 0.00 0.00 0.00 0.01 0.01 0.01 0.02 0.02 0.03 0.02 0.02 0.02 0.01 0.02 0.03 0.02
0.00 0.00 0.00 0.00 0.00 0.00 0.01 0.01 0.01 0.01 0.01 0.04 0.02 0.01 0.01 0.01 0.02 0.03 0.06 0.08 0.06 0.05 0.05 0.04 0.04 0.03 0.02 0.02 0.01 0.01 0.00 0.00 0.00 0.00 0.00 0.00 0.01 0.01 0.01 0.01 0.01 0.01 0.02 0.02 0.02 0.02 0.02 0.02 0.01
0.00 0.00 0.00 0.01 0.00 0.00 0.01 0.01 0.01 0.01 0.01 0.04 0.04 0.02 0.01 0.01 0.01 0.06 0.12 0.16 0.12 0.09 0.07 0.05 0.04 0.03 0.02 0.02 0.01 0.01 0.00 0.00 0.00 0.00 0.00 0.00 0.01 0.01 0.01 0.01 0.01 0.00 0.01 0.01 0.01 0.01 0.02 0.02 0.02
0.00 0.00 0.01 0.01 0.01 0.00 0.01 0.01 0.01 0.01 0.02 0.04 0.05 0.02 0.01 0.01 0.03 0.06 0.12 0.15 0.13 0.09 0.07 0.05 0.03 0.03 0.02 0.01 0.01 0.00 0.00 0.00 0.00 0.00 0.00 0.00 0.00 0.00 0.01 0.02 0.01 0.00 0.01 0.01 0.01 0.01 0.02 0.02 0.02
0.00 0.00 0.01 0.01 0.01 0.01 0.01 0.01 0.01 0.01 0.02 0.05 0.04 0.01 0.02 0.03 0.04 0.06 0.09 0.10 0.09 0.08 0.06 0.05 0.03 0.01 0.01 0.00 0.00 0.00 0.00 0.00 0.00 0.00 0.00 0.00 0.01 0.01 0.01 0.01 0.01 0.01 0.01 0.01 0.01 0.01 0.02 0.02 0.02
0.00 0.01 0.01 0.01 0.01 0.00 0.01 0.02 0.02 0.03 0.04 0.06 0.03 0.02 0.02 0.04 0.03 0.04 0.06 0.06 0.05 0.04 0.03 0.03 0.03 0.01 0.00 0.00 0.00 0.00 0.00 0.00 0.00 0.00 0.01 0.00 0.00 0.00 0.01 0.01 0.01 0.00 0.00 0.01 0.01 0.02 0.02 0.02 0.02
0.01 0.01 0.01 0.01 0.01 0.01 0.01 0.02 0.02 0.02 0.05 0.06 0.03 0.02 0.02 0.02 0.02 0.02 0.03 0.04 0.03 0.02 0.01 0.01 0.01 0.01 0.00 0.00 0.00 0.00 0.00 0.00 0.00 0.01 0.01 0.01 0.00 0.00 0.01 0.00 0.01 0.00 0.00 0.01 0.01 0.01 0.02 0.02 0.02
0.01 0.01 0.01 0.02 0.01 0.01 0.02 0.02 0.02 0.01 0.04 0.05 0.02 0.02 0.03 0.02 0.02 0.02 0.01 0.02 0.02 0.01 0.00 0.00 0.01 0.01 0.00 0.00 0.00 0.00 0.00 0.00 0.01 0.01 0.01 0.01 0.00 0.00 0.00 0.00 0.00 0.00 0.00 0.01 0.01 0.01 0.02 0.02 0.02
0.00 0.01 0.01 0.02 0.01 0.01 0.02 0.03 0.03 0.02 0.03 0.03 0.01 0.00 0.01 0.01 0.02 0.01 0.01 0.01 0.01 0.01 0.00 0.00 0.00 0.00 0.00 0.00 0.00 0.00 0.00 0.00 0.00 0.00 0.01 0.01 0.00 0.00 0.01 0.00 0.00 0.00 0.00 0.00 0.00 0.01 0.01 0.01 0.01
0.01 0.01 0.01 0.01 0.01 0.01 0.02 0.03 0.04 0.02 0.03 0.03 0.02 0.01 0.00 0.01 0.01 0.01 0.01 0.01 0.01 0.01 0.00 0.00 0.00 0.00 0.00 0.00 0.00 0.00 0.00 0.00 0.00 0.00 0.00 0.00 0.01 0.01 0.00 0.00 0.00 0.01 0.01 0.00 0.00 0.01 0.01 0.01 0.02
0.01 0.02 0.02 0.02 0.02 0.01 0.02 0.04 0.04 0.03 0.03 0.03 0.03 0.01 0.01 0.02 0.01 0.00 0.00 0.01 0.01 0.01 0.00 0.00 0.00 0.00 0.00 0.00 0.00 0.00 0.00 0.00 0.00 0.00 0.00 0.00 0.00 0.00 0.00 0.00 0.00 0.00 0.00 0.01 0.01 0.01 0.01 0.02 0.02
0.02 0.01 0.01 0.02 0.03 0.03 0.03 0.04 0.03 0.04 0.04 0.02 0.01 0.01 0.00 0.01 0.01 0.00 0.00 0.01 0.01 0.01 0.00 0.00 0.00 0.00 0.00 0.00 0.00 0.00 0.00 0.00 0.00 0.00 0.00 0.00 0.00 0.00 0.00 0.01 0.01 0.01 0.01 0.01 0.00 0.01 0.01 0.02 0.03
0.01 0.01 0.01 0.02 0.03 0.03 0.03 0.03 0.03 0.03 0.04 0.02 0.01 0.00 0.00 0.00 0.00 0.00 0.01 0.01 0.00 0.01 0.01 0.00 0.00 0.00 0.00 0.00 0.00 0.00 0.00 0.00 0.00 0.00 0.00 0.00 0.00 0.00 0.00 0.00 0.00 0.01 0.01 0.01 0.00 0.00 0.01 0.02 0.03
0.01 0.02 0.02 0.03 0.02 0.02 0.01 0.02 0.02 0.01 0.01 0.01 0.01 0.00 0.00 0.00 0.00 0.00 0.01 0.01 0.00 0.00 0.00 0.00 0.00 0.00 0.00 0.00 0.00 0.00 0.00 0.00 0.00 0.00 0.00 0.00 0.00 0.00 0.00 0.00 0.00 0.00 0.00 0.00 0.00 0.00 0.00 0.01 0.01
0.02 0.02 0.02 0.02 0.02 0.02 0.01 0.01 0.01 0.01 0.00 0.00 0.00 0.00 0.00 0.00 0.00 0.00 0.00 0.00 0.00 0.00 0.00 0.00 0.00 0.01 0.01 0.01 0.00 0.00 0.00 0.00 0.00 0.00 0.00 0.00 0.00 0.00 0.00 0.00 0.00 0.00 0.00 0.00 0.01 0.00 0.00 0.01 0.01
0.01 0.02 0.02 0.02 0.02 0.02 0.02 0.01 0.01 0.00 0.00 0.00 0.00 0.00 0.00 0.00 0.00 0.00 0.00 0.00 0.00 0.00 0.00 0.00 0.00 0.01 0.01 0.01 0.01 0.00 0.00 0.00 0.00 0.00 0.00 0.00 0.00 0.00 0.00 0.00 0.00 0.00 0.01 0.01 0.01 0.01 0.00 0.01 0.01
0.02 0.02 0.01 0.01 0.01 0.02 0.02 0.01 0.02 0.01 0.00 0.00 0.00 0.00 0.00 0.00 0.00 0.00 0.00 0.00 0.00 0.00 0.00 0.00 0.00 0.01 0.01 0.01 0.01 0.00 0.00 0.00 0.00 0.00 0.00 0.00 0.00 0.00 0.00 0.00 0.00 0.01 0.01 0.01 0.01 0.00 0.00 0.00 0.01
0.01 0.01 0.01 0.01 0.02 0.02 0.02 0.02 0.02 0.02 0.01 0.00 0.00 0.00 0.00 0.00 0.00 0.00 0.00 0.00 0.00 0.00 0.00 0.00 0.01 0.01 0.01 0.01 0.00 0.01 0.00 0.00 0.00 0.00 0.00 0.00 0.00 0.00 0.00 0.00 0.00 0.00 0.00 0.00 0.00 0.00 0.00 0.00 0.00
0.01 0.01 0.01 0.02 0.02 0.02 0.03 0.02 0.02 0.03 0.01 0.00 0.00 0.00 0.00 0.00 0.00 0.00 0.00 0.00 0.00 0.00 0.00 0.01 0.01 0.01 0.01 0.01 0.00 0.00 0.00 0.00 0.00 0.00 0.00 0.00 0.00 0.00 0.00 0.00 0.00 0.00 0.00 0.00 0.00 0.01 0.01 0.00 0.00
0.00 0.00 0.01 0.02 0.02 0.02 0.02 0.01 0.01 0.02 0.02 0.01 0.00 0.00 0.00 0.00 0.00 0.00 0.00 0.00 0.00 0.00 0.00 0.01 0.00 0.01 0.02 0.01 0.01 0.01 0.01 0.01 0.00 0.00 0.00 0.00 0.00 0.00 0.00 0.00 0.00 0.00 0.00 0.00 0.00 0.00 0.00 0.00 0.00
MSLP
1010.34 1010.97 1011.81 1012.76 1013.70 1014.50 1015.09 1015.41 1015.48 1015.38 1015.21 1015.07 1015.05 1015.18 1015.44 1015.78 1016.11 1016.34 1016.42 1016.32 1016.07 1015.76 1015.44 1015.21 1015.10 1015.13 1015.25 1015.42 1015.57 1015.65 1015.66 1015.60 1015.50 1015.41 1015.35 1015.35 1015.41 1015.49 1015.57 1015.62 1015.64 1015.62 1015.60 1015.58 1015.60 1015.65 1015.73 1015.80 1015.84
1010.63 1011.40 1012.34 1013.34 1014.26 1015.00 1015.48 1015.67 1015.64 1015.44 1015.21 1015.05 1015.03 1015.18 1015.48 1015.84 1016.19 1016.43 1016.51 1016.43 1016.21 1015.92 1015.64 1015.44 1015.37 1015.42 1015.55 1015.72 1015.87 1015.95 1015.96 1015.91 1015.81 1015.73 1015.67 1015.66 1015.68 1015.72 1015.76 1015.76 1015.73 1015.69 1015.65 1015.64 1015.67 1015.74 1015.83 1015.90 1015.92
1011.08 1011.98 1012.99 1013.99 1014.86 1015.49 1015.84 1015.91 1015.76 1015.49 1015.22 1015.06 1015.06 1015.24 1015.55 1015.93 1016.27 1016.51 1016.58 1016.50 1016.30 1016.04 1015.81 1015.66 1015.63 1015.70 1015.85 1016.02 1016.16 1016.23 1016.23 1016.17 1016.08 1015.99 1015.93 1015.91 1015.91 1015.91 1015.90 1015.86 1015.79 1015.73 1015.68 1015.68 1015.73 1015.81 1015.91 1015.98 1016.00
1011.65 1012.64 1013.68 1014.64 1015.42 1015.93 1016.14 1016.08 1015.84 1015.53 1015.25 1015.11 1015.14 1015.34 1015.67 1016.05 1016.37 1016.58 1016.63 1016.55 1016.36 1016.14 1015.95 1015.86 1015.87 1015.98 1016.14 1016.30 1016.42 1016.47 1016.45 1016.38 1016.28 1016.19 1016.12 1016.08 1016.07 1016.04 1016.00 1015.93 1015.84 1015.76 1015.72 1015.72 1015.78 1015.88 1015.99 1016.07 1016.08
1012.27 1013.31 1014.34 1015.23 1015.89 1016.26 1016.34 1016.18 1015.88 1015.54 1015.29 1015.19 1015.27 1015.51 1015.85 1016.20 1016.50 1016.66 1016.68 1016.58 1016.40 1016.21 1016.08 1016.04 1016.10 1016.24 1016.40 1016.55 1016.64 1016.66 1016.60 1016.50 1016.39 1016.29 1016.22 1016.18 1016.16 1016.13 1016.07 1015.99 1015.90 1015.81 1015.77 1015.78 1015.85 1015.96 1016.07 1016.15 1016.16
1012.88 1013.93 1014.90 1015.69 1016.21 1016.44 1016.41 1016.17 1015.84 1015.53 1015.33 1015.30 1015.44 1015.72 1016.06 1016.40 1016.64 1016.76 1016.73 1016.61 1016.43 1016.28 1016.20 1016.21 1016.31 1016.47 1016.64 1016.76 1016.81 1016.78 1016.68 1016.55 1016.41 1016.31 1016.24 1016.22 1016.20 1016.18 1016.13 1016.05 1015.96 1015.88 1015.84 1015.85 1015.91 1016.02 1016.13 1016.20 1016.20
1013.42 1014.42 1015.30 1015.96 1016.35 1016.46 1016.33 1016.06 1015.74 1015.48 1015.37 1015.42 1015.64 1015.96 1016.31 1016.61 1016.81 1016.86 1016.79 1016.64 1016.47 1016.34 1016.29 1016.35 1016.48 1016.66 1016.81 1016.90 1016.91 1016.83 1016.68 1016.52 1016.36 1016.26 1016.21 1016.20 1016.21 1016.21 1016.18 1016.12 1016.04 1015.96 1015.91 1015.91 1015.96 1016.04 1016.14 1016.20 1016.20
1013.84 1014.76 1015.52 1016.05 1016.31 1016.32 1016.14 1015.86 1015.59 1015.42 1015.40 1015.56 1015.84 1016.20 1016.56 1016.83 1016.97 1016.96 1016.84 1016.67 1016.50 1016.39 1016.37 1016.46 1016.62 1016.79 1016.92 1016.98 1016.94 1016.81 1016.63 1016.43 1016.27 1016.17 1016.14 1016.16 1016.20 1016.24 1016.24 1016.20 1016.12 1016.04 1015.98 1015.96 1015.98 1016.04 1016.10 1016.15 1016.14
1014.15 1014.96 1015.59 1015.98 1016.14 1016.08 1015.88 1015.63 1015.43 1015.36 1015.45 1015.70 1016.05 1016.44 1016.78 1017.02 1017.10 1017.05 1016.89 1016.69 1016.52 1016.43 1016.43 1016.54 1016.70 1016.87 1016.98 1017.00 1016.91 1016.75 1016.53 1016.32 1016.16 1016.08 1016.07 1016.13 1016.21 1016.28 1016.31 1016.30 1016.23 1016.15 1016.07 1016.02 1016.00 1016.02 1016.05 1016.08 1016.07
1014.36 1015.04 1015.54 1015.83 1015.90 1015.81 1015.62 1015.42 1015.31 1015.33 1015.52 1015.84 1016.23 1016.63 1016.96 1017.15 1017.19 1017.09 1016.91 1016.70 1016.53 1016.45 1016.47 1016.59 1016.75 1016.90 1016.98 1016.97 1016.86 1016.66 1016.43 1016.22 1016.07 1016.01 1016.04 1016.13 1016.25 1016.36 1016.42 1016.43 1016.38 1016.29 1016.20 1016.12 1016.07 1016.05 1016.05 1016.05 1016.03
1014.52 1015.08 1015.47 1015.66 1015.68 1015.58 1015.42 1015.29 1015.25 1015.36 1015.61 1015.98 1016.39 1016.77 1017.07 1017.22 1017.22 1017.09 1016.88 1016.67 1016.51 1016.45 1016.49 1016.60 1016.76 1016.89 1016.96 1016.92 1016.79 1016.58 1016.35 1016.16 1016.03 1016.00 1016.06 1016.19 1016.35 1016.49 1016.58 1016.61 1016.57 1016.49 1016.39 1016.29 1016.22 1016.17 1016.15 1016.13 1016.11
1014.68 1015.13 1015.43 1015.56 1015.55 1015.46 1015.34 1015.27 1015.30 1015.46 1015.74 1016.11 1016.50 1016.84 1017.09 1017.19 1017.16 1017.01 1016.81 1016.61 1016.47 1016.43 1016.48 1016.60 1016.75 1016.87 1016.91 1016.87 1016.73 1016.54 1016.33 1016.16 1016.07 1016.08 1016.17 1016.33 1016.51 1016.68 1016.79 1016.84 1016.83 1016.76 1016.67 1016.58 1016.50 1016.44 1016.41 1016.38 1016.36
1014.88 1015.25 1015.48 1015.57 1015.55 1015.48 1015.40 1015.38 1015.44 1015.62 1015.89 1016.22 1016.55 1016.83 1017.01 1017.07 1017.01 1016.86 1016.67 1016.51 1016.40 1016.39 1016.45 1016.58 1016.73 1016.84 1016.88 1016.84 1016.72 1016.55 1016.38 1016.25 1016.20 1016.23 1016.36 1016.54 1016.74 1016.92 1017.06 1017.13 1017.15 1017.11 1017.05 1016.98 1016.91 1016.87 1016.84 1016.82 1016.79
1015.18 1015.47 1015.65 1015.72 1015.70 1015.65 1015.60 1015.59 1015.66 1015.81 1016.03 1016.29 1016.54 1016.73 1016.84 1016.86 1016.78 1016.64 1016.49 1016.37 1016.31 1016.33 1016.42 1016.56 1016.71 1016.83 1016.88 1016.85 1016.76 1016.64 1016.51 1016.43 1016.41 1016.48 1016.62 1016.81 1017.01 1017.21 1017.36 1017.46 1017.50 1017.51 1017.49 1017.46 1017.44 1017.42 1017.41 1017.40 1017.37
1015.56 1015.80 1015.94 1015.99 1015.98 1015.93 1015.89 1015.88 1015.92 1016.01 1016.15 1016.30 1016.45 1016.55 1016.59 1016.57 1016.50 1016.39 1016.28 1016.22 1016.21 1016.28 1016.40 1016.55 1016.71 1016.84 1016.91 1016.91 1016.87 1016.79 1016.72 1016.68 1016.70 1016.79 1016.93 1017.11 1017.32 1017.50 1017.66 1017.78 1017.86 1017.91 1017.95 1017.97 1018.00 1018.03 1018.05 1018.05 1018.03
1016.01 1016.20 1016.31 1016.34 1016.33 1016.29 1016.24 1016.20 1016.18 1016.19 1016.23 1016.27 1016.30 1016.32 1016.30 1016.25 1016.19 1016.12 1016.08 1016.07 1016.12 1016.23 1016.39 1016.56 1016.73 1016.88 1016.97 1017.02 1017.02 1017.00 1016.98 1016.99 1017.04 1017.13 1017.27 1017.44 1017.61 1017.79 1017.94 1018.07 1018.18 1018.27 1018.36 1018.44 1018.52 1018.60 1018.65 1018.67 1018.65
1016.50 1016.65 1016.72 1016.74 1016.72 1016.66 1016.59 1016.50 1016.41 1016.33 1016.25 1016.18 1016.12 1016.05 1015.99 1015.94 1015.89 1015.88 1015.90 1015.96 1016.07 1016.22 1016.40 1016.60 1016.79 1016.95 1017.08 1017.16 1017.22 1017.25 1017.28 1017.33 1017.40 1017.49 1017.61 1017.75 1017.89 1018.03 1018.17 1018.30 1018.42 1018.55 1018.68 1018.81 1018.94 1019.05 1019.13 1019.17 1019.16
1016.98 1017.09 1017.15 1017.15 1017.11 1017.03 1016.92 1016.78 1016.61 1016.43 1016.25 1016.07 1015.92 1015.79 1015.70 1015.65 1015.65 1015.68 1015.77 1015.89 1016.05 1016.24 1016.45 1016.67 1016.87 1017.05 1017.21 1017.34 1017.44 1017.53 1017.60 1017.68 1017.76 1017.85 1017.94 1018.04 1018.14 1018.24 1018.34 1018.46 1018.58 1018.72 1018.88 1019.04 1019.20 1019.34 1019.44 1019.50 1019.49
1017.42 1017.51 1017.54 1017.53 1017.48 1017.38 1017.23 1017.03 1016.78 1016.51 1016.23 1015.97 1015.75 1015.57 1015.47 1015.43 1015.46 1015.55 1015.70 1015.87 1016.08 1016.30 1016.53 1016.76 1016.97 1017.17 1017.36 1017.52 1017.67 1017.80 1017.92 1018.02 1018.11 1018.19 1018.25 1018.31 1018.36 1018.41 1018.48 1018.57 1018.68 1018.82 1018.98 1019.15 1019.32 1019.47 1019.58 1019.64 1019.65
1017.79 1017.87 1017.90 1017.89 1017.83 1017.71 1017.52 1017.26 1016.95 1016.59 1016.23 1015.90 1015.62 1015.41 1015.30 1015.28 1015.34 1015.48 1015.67 1015.89 1016.13 1016.38 1016.62 1016.85 1017.08 1017.30 1017.51 1017.71 1017.89 1018.06 1018.21 1018.33 1018.43 1018.49 1018.53 1018.55 1018.56 1018.58 1018.61 1018.66 1018.75 1018.87 1019.02 1019.18 1019.35 1019.49 1019.60 1019.66 1019.67
1018.08 1018.17 1018.22 1018.22 1018.16 1018.03 1017.82 1017.51 1017.13 1016.71 1016.28 1015.88 1015.54 1015.31 1015.19 1015.18 1015.27 1015.44 1015.67 1015.92 1016.18 1016.44 1016.69 1016.93 1017.17 1017.40 1017.64 1017.87 1018.09 1018.29 1018.47 1018.61 1018.71 1018.76 1018.79 1018.78 1018.76 1018.74 1018.74 1018.77 1018.83 1018.93 1019.05 1019.20 1019.34 1019.46 1019.55 1019.61 1019.62
1018.29 1018.41 1018.49 1018.53 1018.49 1018.36 1018.13 1017.78 1017.35 1016.86 1016.36 1015.90 1015.52 1015.25 1015.11 1015.10 1015.21 1015.40 1015.64 1015.91 1016.19 1016.46 1016.72 1016.97 1017.23 1017.48 1017.73 1017.99 1018.24 1018.47 1018.67 1018.83 1018.93 1018.99 1019.01 1018.99 1018.96 1018.93 1018.91 1018.92 1018.96 1019.03 1019.13 1019.24 1019.35 1019.45 1019.52 1019.56 1019.57
1018.43 1018.60 1018.74 1018.82 1018.81 1018.69 1018.45 1018.07 1017.59 1017.04 1016.48 1015.96 1015.52 1015.21 1015.05 1015.02 1015.11 1015.30 1015.55 1015.83 1016.12 1016.40 1016.68 1016.95 1017.22 1017.50 1017.78 1018.06 1018.34 1018.59 1018.81 1018.98 1019.10 1019.17 1019.19 1019.18 1019.15 1019.12 1019.10 1019.11 1019.14 1019.20 1019.27 1019.35 1019.44 1019.51 1019.55 1019.58 1019.58
1018.52 1018.75 1018.94 1019.08 1019.11 1019.00 1018.75 1018.35 1017.82 1017.22 1016.60 1016.01 1015.52 1015.16 1014.95 1014.89 1014.96 1015.13 1015.38 1015.66 1015.95 1016.25 1016.55 1016.84 1017.14 1017.45 1017.76 1018.07 1018.37 1018.65 1018.88 1019.07 1019.20 1019.28 1019.32 1019.32 1019.32 1019.30 1019.30 1019.32 1019.35 1019.40 1019.47 1019.53 1019.58 1019.63 1019.65 1019.66 1019.65
1018.55 1018.84 1019.10 1019.28 1019.34 1019.25 1018.99 1018.57 1018.01 1017.36 1016.68 1016.04 1015.49 1015.07 1014.80 1014.70 1014.73 1014.88 1015.10 1015.38 1015.68 1016.00 1016.32 1016.65 1016.99 1017.33 1017.67 1018.02 1018.34 1018.63 1018.88 1019.07 1019.22 1019.31 1019.37 1019.40 1019.43 1019.45 1019.48 1019.52 1019.57 1019.63 1019.69 1019.74 1019.77 1019.79 1019.80 1019.79 1019.77
1018.54 1018.88 1019.18 1019.40 1019.48 1019.40 1019.14 1018.69 1018.10 1017.41 1016.69 1016.00 1015.40 1014.92 1014.61 1014.45 1014.44 1014.55 1014.75 1015.01 1015.32 1015.66 1016.01 1016.38 1016.76 1017.14 1017.52 1017.89 1018.23 1018.54 1018.79 1019.00 1019.15 1019.27 1019.35 1019.41 1019.47 1019.54 1019.60 1019.68 1019.76 1019.84 1019.90 1019.94 1019.97 1019.97 1019.96 1019.94 1019.92
1018.49 1018.86 1019.18 1019.41 1019.50 1019.41 1019.14 1018.68 1018.07 1017.36 1016.61 1015.89 1015.25 1014.73 1014.37 1014.16 1014.10 1014.17 1014.34 1014.59 1014.90 1015.25 1015.64 1016.04 1016.46 1016.89 1017.30 1017.70 1018.06 1018.38 1018.64 1018.86 1019.02 1019.15 1019.26 1019.35 1019.45 1019.56 1019.67 1019.79 1019.90 1020.00 1020.07 1020.12 1020.15 1020.14 1020.13 1020.10 1020.07
1018.39 1018.77 1019.09 1019.30 1019.38 1019.27 1018.98 1018.51 1017.89 1017.18 1016.43 1015.70 1015.04 1014.51 1014.11 1013.86 1013.76 1013.79 1013.93 1014.16 1014.46 1014.82 1015.22 1015.66 1016.12 1016.58 1017.04 1017.46 1017.84 1018.17 1018.45 1018.67 1018.84 1018.99 1019.12 1019.25 1019.39 1019.54 1019.70 1019.86 1020.00 1020.13 1020.22 1020.28 1020.30 1020.30 1020.28 1020.25 1020.22
1018.27 1018.62 1018.90 1019.08 1019.11 1018.97 1018.66 1018.19 1017.58 1016.88 1016.15 1015.45 1014.81 1014.27 1013.87 1013.59 1013.45 1013.44 1013.54 1013.74 1014.03 1014.38 1014.80 1015.26 1015.75 1016.24 1016.73 1017.18 1017.59 1017.93 1018.22 1018.46 1018.65 1018.81 1018.97 1019.14 1019.32 1019.51 1019.71 1019.91 1020.09 1020.24 1020.35 1020.41 1020.44 1020.45 1020.43 1020.41 1020.39
1018.11 1018.42 1018.65 1018.76 1018.74 1018.55 1018.21 1017.73 1017.15 1016.49 1015.81 1015.15 1014.55 1014.05 1013.65 1013.36 1013.20 1013.15 1013.21 1013.37 1013.62 1013.96 1014.38 1014.85 1015.36 1015.88 1016.40 1016.88 1017.31 1017.68 1017.99 1018.25 1018.47 1018.66 1018.85 1019.06 1019.28 1019.51 1019.75 1019.98 1020.19 1020.36 1020.49 1020.57 1020.61 1020.61 1020.60 1020.59 1020.58
Thickness
5798 5798 5798 5790 5778 5768 5758 5760 5768 5765 5766 5770 5771 5768 5762 5756 5751 5742 5753 5761 5760 5758 5755 5752 5750 5749 5749 5749 5748 5748 5747 5747 5746 5746 5745 5745 5745 5745 5745 5745 5745 5745 5745 5746 5746 5747 5748 5749 5750
5799 5798 5792 5784 5770 5757 5753 5762 5763 5764 5767 5770 5769 5767 5761 5754 5758 5756 5756 5758 5758 5756 5754 5752 5748 5747 5747 5747 5746 5746 5745 5744 5744 5743 5743 5742 5742 5742 5742 5742 5742 5742 5742 5743 5743 5744 5745 5746 5747
5799 5797 5786 5777 5766 5759 5753 5761 5763 5765 5769 5768 5763 5763 5758 5752 5756 5756 5757 5757 5756 5754 5752 5749 5746 5746 5745 5745 5744 5744 5743 5742 5741 5741 5740 5740 5740 5740 5740 5740 5739 5740 5740 5740 5741 5741 5742 5743 5744
5796 5789 5784 5772 5758 5760 5762 5763 5765 5762 5764 5766 5764 5756 5756 5757 5758 5758 5757 5756 5755 5752 5750 5747 5745 5744 5743 5743 5742 5742 5741 5740 5740 5739 5738 5738 5738 5737 5737 5737 5737 5737 5737 5737 5738 5739 5739 5740 5741
5793 5783 5770 5760 5756 5760 5766 5767 5766 5761 5759 5761 5761 5751 5748 5755 5759 5758 5755 5754 5753 5752 5749 5746 5743 5742 5742 5741 5740 5740 5740 5739 5738 5737 5736 5736 5735 5735 5735 5734 5734 5734 5734 5734 5735 5735 5736 5737 5738
5782 5778 5762 5753 5752 5758 5764 5767 5765 5760 5758 5759 5757 5750 5746 5754 5755 5753 5753 5752 5752 5750 5747 5745 5741 5740 5739 5739 5738 5738 5738 5737 5736 5735 5735 5734 5733 5733 5732 5732 5732 5732 5732 5731 5732 5732 5733 5734 5734
5776 5769 5759 5755 5751 5753 5759 5766 5762 5758 5755 5756 5759 5748 5745 5750 5752 5752 5751 5750 5749 5747 5746 5745 5744 5741 5738 5737 5736 5736 5735 5735 5734 5733 5733 5732 5731 5730 5730 5730 5729 5729 5729 5729 5729 5729 5730 5730 5731
5780 5770 5755 5754 5749 5750 5760 5762 5762 5759 5753 5760 5760 5747 5742 5747 5751 5750 5748 5747 5747 5746 5745 5744 5742 5742 5741 5739 5735 5734 5733 5733 5732 5732 5731 5730 5730 5729 5729 5729 5727 5727 5726 5726 5726 5726 5727 5727 5728
5779 5762 5750 5750 5750 5751 5759 5757 5758 5762 5756 5754 5756 5754 5753 5752 5749 5746 5744 5743 5743 5743 5744 5743 5742 5740 5739 5738 5734 5734 5732 5731 5732 5731 5730 5731 5732 5731 5729 5726 5725 5724 5723 5723 5723 5723 5724 5725 5726
5771 5754 5750 5756 5759 5756 5756 5756 5755 5754 5748 5746 5747 5749 5751 5748 5746 5742 5741 5740 5740 5741 5742 5743 5741 5740 5738 5736 5734 5734 5734 5732 5733 5732 5731 5731 5730 5728 5726 5722 5722 5721 5721 5720 5720 5721 5722 5724 5726
5765 5754 5754 5757 5760 5759 5754 5753 5756 5750 5742 5745 5744 5743 5745 5744 5743 5742 5741 5741 5741 5741 5740 5741 5741 5739 5737 5735 5734 5733 5733 5731 5732 5731 5730 5729 5728 5727 5725 5724 5722 5721 5720 5721 5719 5721 5722 5723 5723
5757 5753 5755 5755 5756 5755 5752 5751 5749 5747 5745 5751 5750 5747 5743 5740 5741 5740 5740 5740 5740 5739 5738 5739 5739 5738 5736 5735 5733 5732 5732 5731 5731 5729 5728 5728 5726 5725 5723 5722 5720 5720 5719 5718 5719 5719 5719 5719 5720
5752 5749 5751 5752 5752 5752 5750 5746 5744 5741 5746 5749 5747 5743 5740 5739 5739 5741 5741 5740 5738 5736 5736 5737 5737 5736 5735 5733 5731 5732 5730 5730 5730 5726 5727 5726 5725 5724 5722 5720 5718 5718 5717 5716 5716 5716 5715 5716 5716
5750 5748 5747 5747 5747 5747 5743 5741 5740 5737 5742 5741 5739 5738 5737 5736 5736 5737 5737 5736 5736 5735 5735 5735 5734 5733 5733 5732 5732 5730 5730 5727 5728 5726 5725 5724 5723 5722 5720 5719 5716 5716 5715 5714 5714 5713 5712 5713 5713
5751 5743 5740 5741 5742 5742 5741 5731 5732 5737 5738 5735 5734 5734 5733 5733 5734 5734 5736 5736 5736 5735 5735 5733 5732 5731 5731 5730 5729 5728 5728 5728 5726 5724 5724 5723 5721 5720 5718 5717 5716 5714 5713 5712 5712 5711 5710 5709 5709
5745 5737 5728 5733 5738 5738 5732 5719 5730 5736 5734 5729 5730 5731 5729 5730 5733 5734 5735 5735 5735 5734 5733 5731 5730 5729 5728 5727 5726 5727 5727 5726 5725 5723 5721 5721 5720 5718 5716 5715 5714 5712 5711 5710 5709 5709 5707 5706 5705
5733 5726 5724 5727 5735 5735 5730 5721 5728 5733 5730 5727 5727 5729 5729 5729 5730 5733 5733 5734 5733 5732 5731 5729 5728 5727 5726 5725 5724 5724 5724 5723 5722 5721 5720 5719 5718 5717 5715 5713 5712 5711 5711 5710 5709 5706 5705 5703 5701
5723 5724 5722 5722 5729 5730 5725 5723 5727 5729 5729 5727 5727 5729 5729 5728 5729 5732 5732 5732 5732 5731 5731 5728 5726 5726 5725 5723 5724 5722 5722 5721 5720 5719 5717 5716 5716 5715 5714 5712 5711 5710 5709 5707 5706 5703 5702 5701 5701
5729 5724 5720 5722 5729 5725 5723 5722 5725 5727 5726 5725 5725 5727 5729 5728 5731 5732 5731 5730 5730 5729 5728 5727 5725 5724 5723 5722 5721 5720 5719 5719 5717 5716 5714 5713 5713 5713 5712 5712 5710 5708 5707 5706 5705 5703 5701 5700 5701
5725 5719 5718 5720 5725 5723 5721 5721 5727 5727 5726 5726 5727 5729 5730 5729 5729 5729 5728 5728 5728 5727 5726 5725 5724 5723 5722 5720 5721 5719 5717 5717 5715 5713 5712 5712 5712 5711 5711 5710 5709 5706 5704 5704 5703 5701 5701 5699 5700
5719 5718 5716 5714 5718 5722 5718 5717 5722 5727 5728 5728 5728 5730 5732 5729 5729 5728 5727 5727 5727 5726 5725 5723 5723 5722 5721 5719 5719 5717 5715 5715 5713 5712 5711 5710 5710 5709 5708 5708 5708 5706 5705 5703 5702 5701 5699 5699 5700
5713 5721 5718 5713 5711 5711 5713 5706 5719 5724 5722 5724 5726 5729 5730 5730 5730 5728 5727 5726 5726 5725 5726 5725 5723 5722 5720 5718 5718 5716 5714 5713 5712 5712 5711 5709 5708 5707 5706 5706 5706 5705 5705 5702 5702 5701 5700 5698 5698
5717 5720 5717 5714 5711 5709 5712 5706 5717 5724 5719 5724 5728 5730 5731 5731 5730 5729 5728 5727 5727 5725 5724 5723 5722 5720 5718 5717 5716 5715 5714 5713 5713 5711 5710 5709 5707 5706 5705 5705 5705 5704 5703 5702 5701 5700 5699 5699 5697
5718 5716 5713 5712 5710 5699 5710 5706 5709 5723 5724 5727 5730 5732 5732 5732 5731 5730 5729 5727 5725 5723 5721 5720 5719 5717 5715 5715 5715 5714 5712 5711 5710 5709 5708 5708 5707 5705 5704 5704 5703 5703 5702 5701 5700 5698 5698 5697 5696
5715 5707 5697 5695 5695 5699 5711 5706 5713 5730 5734 5732 5732 5733 5734 5733 5731 5729 5727 5725 5723 5721 5719 5719 5717 5715 5714 5714 5714 5714 5712 5712 5710 5709 5708 5707 5707 5705 5704 5704 5703 5702 5701 5699 5699 5698 5697 5697 5695
5710 5709 5695 5687 5691 5700 5706 5705 5721 5733 5736 5737 5736 5735 5734 5733 5732 5729 5727 5725 5723 5721 5719 5719 5717 5715 5714 5714 5714 5714 5712 5711 5711 5709 5709 5708 5707 5706 5704 5703 5702 5700 5699 5698 5697 5698 5697 5696 5695
5708 5707 5711 5703 5698 5694 5704 5712 5723 5731 5731 5733 5732 5731 5731 5731 5730 5728 5727 5725 5723 5721 5720 5719 5718 5716 5715 5714 5713 5713 5712 5711 5709 5709 5709 5707 5707 5705 5703 5702 5701 5699 5698 5697 5697 5696 5695 5695 5694
5713 5712 5704 5697 5686 5685 5695 5703 5711 5719 5723 5727 5729 5728 5730 5730 5729 5728 5726 5725 5724 5723 5722 5721 5719 5717 5715 5714 5713 5712 5711 5710 5709 5708 5707 5706 5705 5703 5702 5702 5700 5699 5697 5696 5695 5695 5693 5693 5691
5703 5702 5703 5700 5696 5687 5684 5700 5725 5724 5726 5726 5729 5730 5730 5729 5728 5727 5726 5725 5724 5723 5722 5720 5719 5717 5715 5714 5713 5711 5709 5709 5708 5706 5705 5704 5703 5702 5701 5700 5700 5698 5697 5695 5693 5693 5691 5691 5691
5708 5707 5705 5693 5691 5693 5689 5702 5732 5730 5730 5730 5730 5730 5731 5729 5728 5727 5725 5724 5722 5722 5721 5720 5719 5717 5715 5714 5713 5711 5709 5708 5707 5706 5705 5704 5702 5701 5700 5699 5698 5696 5695 5694 5692 5690 5689 5688 5687